Starlink 32301

operational
NORAD ID: 61664 Int'l Des: 2024-193 Owner: SPXS Country: US Constellation: starlink
LEOCIRCULAR

Starlink 32301について

説明を読み込み中...

リアルタイム位置

3D地球を読み込み中...

次回通過

高度履歴

Altitude vs Time

uPlot chart will show altitude changes over time

軌道要素

1 61664U 24193D 25305.48217922 -.00003276 00000-0 -98600-4 0 9999
2 61664 53.1611 326.7940 0001236 85.3045 274.8096 15.30177690 56893
Epoch: Nov 1, 2025 • Age: 30 hours

現在のステータス

高度 479.1 km
速度 7.63 km/s
衛星直下点 -13.28°S, 9.42°E
打ち上げ日 Oct 26, 2024
運用期間 1 years
タイプ internet

技術仕様

分類 Payload
質量 730.00 kg
乾燥質量 700.00 kg
総質量 730.00 kg
長さ 0.30 m
直径 4.10 m
スパン 29.00 m
形状 Box + pan
製造者 SPXS
バスタイプ Starlink V2M
フェーズステータス In Orbit
所有者/国 SPXS/US

大規模コンステレーション

Loading constellations...